Time,TemperatureF,DewpointF,PressureIn,WindDirection,WindDirectionDegrees,WindSpeedMPH,WindSpeedGustMPH,Humidity,HourlyPrecipIn,Conditions,Clouds,dailyrainin,SoftwareType,DateUTC
2013-08-06 00:01:00,61.6,48.0,29.92,SW,229,6.0,12.0,61,0.00,CLR,CLR,0.00,WeatherDisplay:10.34,2013-08-06 06:01:00,
2013-08-06 00:06:00,61.7,47.7,29.92,SW,233,5.0,8.0,60,0.00,CLR,CLR,0.00,WeatherDisplay:10.34,2013-08-06 06:06:00,
2013-08-06 00:11:00,61.8,47.8,29.92,SSW,209,8.0,8.0,60,0.00,CLR,CLR,0.00,WeatherDisplay:10.34,2013-08-06 06:11:00,
2013-08-06 00:16:00,62.0,48.4,29.92,SW,225,9.0,9.0,61,0.00,CLR,CLR,0.00,WeatherDisplay:10.34,2013-08-06 06:16:00,
2013-08-06 00:21:00,62.0,48.4,29.93,SSW,205,8.0,8.0,61,0.00,CLR,CLR,0.00,WeatherDisplay:10.34,2013-08-06 06:21:00,
2013-08-06 00:26:00,61.9,49.2,29.93,SSW,208,7.0,7.0,63,0.00,CLR,CLR,0.00,WeatherDisplay:10.34,2013-08-06 06:26:00,
2013-08-06 00:31:00,61.7,49.0,29.93,SSW,202,7.0,8.0,63,0.00,CLR,CLR,0.00,WeatherDisplay:10.34,2013-08-06 06:31:00,
2013-08-06 00:36:00,61.5,49.2,29.92,SSW,211,7.0,7.0,64,0.00,CLR,CLR,0.00,WeatherDisplay:10.34,2013-08-06 06:36:00,
2013-08-06 00:41:00,61.3,49.4,29.93,SW,221,6.0,6.0,65,0.00,CLR,CLR,0.00,WeatherDisplay:10.34,2013-08-06 06:41:00,
2013-08-06 00:46:00,61.0,48.7,29.93,SSW,211,6.0,6.0,64,0.00,CLR,CLR,0.00,WeatherDisplay:10.34,2013-08-06 06:46:00,
2013-08-06 00:51:00,60.9,47.8,29.92,SW,215,5.0,5.0,62,0.00,CLR,CLR,0.00,WeatherDisplay:10.34,2013-08-06 06:51:00,
2013-08-06 00:57:00,60.9,47.8,29.92,NW,317,9.0,12.0,62,0.00,CLR,CLR,0.00,WeatherDisplay:10.34,2013-08-06 06:57:00,
2013-08-06 01:01:00,61.4,45.6,29.90,West,275,11.0,11.0,56,0.00,CLR,CLR,0.00,WeatherDisplay:10.34,2013-08-06 07:01:00,
2013-08-06 01:06:00,62.8,45.4,29.91,NNW,342,12.0,12.0,53,0.00,CLR,CLR,0.00,WeatherDisplay:10.34,2013-08-06 07:06:00,
2013-08-06 01:11:00,63.9,45.9,29.92,WSW,254,10.0,15.0,52,0.00,CLR,CLR,0.00,WeatherDisplay:10.34,2013-08-06 07:11:00,
2013-08-06 01:16:00,64.7,45.6,29.92,WSW,244,15.0,20.0,50,0.00,CLR,CLR,0.00,WeatherDisplay:10.34,2013-08-06 07:16:00,
2013-08-06 01:22:00,65.0,45.4,29.92,West,264,13.0,16.0,49,0.00,CLR,CLR,0.00,WeatherDisplay:10.34,2013-08-06 07:22:00,
2013-08-06 01:27:00,65.3,44.5,29.92,West,275,12.0,15.0,47,0.00,CLR,CLR,0.00,WeatherDisplay:10.34,2013-08-06 07:27:00,
2013-08-06 01:32:00,65.5,44.7,29.92,NNW,333,9.0,9.0,47,0.00,CLR,CLR,0.00,WeatherDisplay:10.34,2013-08-06 07:32:00,
2013-08-06 01:37:00,65.6,44.8,29.92,West,279,11.0,12.0,47,0.00,CLR,CLR,0.00,WeatherDisplay:10.34,2013-08-06 07:37:00,
2013-08-06 01:42:00,65.6,44.3,29.92,West,275,10.0,12.0,46,0.00,CLR,CLR,0.00,WeatherDisplay:10.34,2013-08-06 07:42:00,
2013-08-06 01:47:00,65.4,44.6,29.92,West,264,19.0,19.0,47,0.00,CLR,CLR,0.00,WeatherDisplay:10.34,2013-08-06 07:47:00,
2013-08-06 01:52:00,65.0,44.8,29.92,WNW,284,13.0,16.0,48,0.00,CLR,CLR,0.00,WeatherDisplay:10.34,2013-08-06 07:52:00,
2013-08-06 01:57:00,64.5,44.9,29.92,NW,315,9.0,13.0,49,0.00,CLR,CLR,0.00,WeatherDisplay:10.34,2013-08-06 07:57:00,
2013-08-06 02:02:00,64.5,44.9,29.92,NNW,328,16.0,20.0,49,0.00,CLR,CLR,0.00,WeatherDisplay:10.34,2013-08-06 08:02:00,
2013-08-06 02:07:00,64.8,45.2,29.92,WSW,246,13.0,13.0,49,0.00,CLR,CLR,0.00,WeatherDisplay:10.34,2013-08-06 08:07:00,
2013-08-06 02:12:00,64.9,45.3,29.92,WNW,296,11.0,13.0,49,0.00,CLR,CLR,0.00,WeatherDisplay:10.34,2013-08-06 08:12:00,
2013-08-06 02:17:00,64.7,45.6,29.92,WNW,287,13.0,17.0,50,0.00,CLR,CLR,0.00,WeatherDisplay:10.34,2013-08-06 08:17:00,
2013-08-06 02:22:00,64.3,45.8,29.92,WNW,285,10.0,14.0,51,0.00,CLR,CLR,0.00,WeatherDisplay:10.34,2013-08-06 08:22:00,
2013-08-06 02:27:00,63.9,45.9,29.93,West,275,9.0,12.0,52,0.00,CLR,CLR,0.00,WeatherDisplay:10.34,2013-08-06 08:27:00,
2013-08-06 02:32:00,63.6,45.6,29.93,WNW,284,17.0,17.0,52,0.00,CLR,CLR,0.00,WeatherDisplay:10.34,2013-08-06 08:32:00,
2013-08-06 02:37:00,63.4,46.0,29.94,West,273,15.0,17.0,53,0.00,CLR,CLR,0.00,WeatherDisplay:10.34,2013-08-06 08:37:00,
2013-08-06 02:42:00,63.1,46.2,29.94,NNE,14,13.0,16.0,54,0.00,CLR,CLR,0.00,WeatherDisplay:10.34,2013-08-06 08:42:00,
2013-08-06 02:47:00,62.8,46.4,29.93,West,260,13.0,22.0,55,0.00,CLR,CLR,0.00,WeatherDisplay:10.34,2013-08-06 08:47:00,
2013-08-06 02:52:00,62.7,46.3,29.93,WNW,284,16.0,21.0,55,0.00,CLR,CLR,0.00,WeatherDisplay:10.34,2013-08-06 08:52:00,
2013-08-06 02:57:00,62.5,46.6,29.93,West,277,17.0,20.0,56,0.00,CLR,CLR,0.00,WeatherDisplay:10.34,2013-08-06 08:57:00,
2013-08-06 03:02:00,62.2,46.8,29.93,West,280,15.0,22.0,57,0.00,CLR,CLR,0.00,WeatherDisplay:10.34,2013-08-06 09:02:00,
2013-08-06 03:07:00,62.0,46.6,29.93,WNW,292,15.0,15.0,57,0.00,CLR,CLR,0.00,WeatherDisplay:10.34,2013-08-06 09:07:00,
2013-08-06 03:12:00,61.9,47.0,29.93,WNW,283,10.0,23.0,58,0.00,CLR,CLR,0.00,WeatherDisplay:10.34,2013-08-06 09:12:00,
2013-08-06 03:17:00,61.8,46.4,29.93,NW,306,15.0,20.0,57,0.00,CLR,CLR,0.00,WeatherDisplay:10.34,2013-08-06 09:17:00,
2013-08-06 03:22:00,61.8,46.4,29.93,West,276,8.0,13.0,57,0.00,CLR,CLR,0.00,WeatherDisplay:10.34,2013-08-06 09:22:00,
2013-08-06 03:27:00,61.9,46.5,29.93,NNW,330,13.0,17.0,57,0.00,CLR,CLR,0.00,WeatherDisplay:10.34,2013-08-06 09:27:00,
2013-08-06 03:32:00,61.9,46.0,29.93,WNW,288,14.0,14.0,56,0.00,CLR,CLR,0.00,WeatherDisplay:10.34,2013-08-06 09:32:00,
2013-08-06 03:37:00,61.8,46.4,29.93,NW,319,6.0,6.0,57,0.00,CLR,CLR,0.00,WeatherDisplay:10.34,2013-08-06 09:37:00,
2013-08-06 03:42:00,61.6,46.7,29.94,NW,304,8.0,9.0,58,0.00,CLR,CLR,0.00,WeatherDisplay:10.34,2013-08-06 09:42:00,
2013-08-06 03:47:00,61.4,46.5,29.94,WNW,298,9.0,12.0,58,0.00,CLR,CLR,0.00,WeatherDisplay:10.34,2013-08-06 09:47:00,
2013-08-06 03:52:00,61.2,46.8,29.94,West,260,7.0,12.0,59,0.00,CLR,CLR,0.00,WeatherDisplay:10.34,2013-08-06 09:52:00,
2013-08-06 03:57:00,61.1,46.7,29.94,NW,325,8.0,10.0,59,0.00,CLR,CLR,0.00,WeatherDisplay:10.34,2013-08-06 09:57:00,
2013-08-06 04:02:00,61.0,46.6,29.94,WNW,302,6.0,9.0,59,0.00,,,0.00,WeatherDisplay:10.34,2013-08-06 10:02:00,
2013-08-06 04:07:00,61.0,47.0,29.94,East,86,7.0,9.0,60,0.00,,,0.00,WeatherDisplay:10.34,2013-08-06 10:07:00,
2013-08-06 04:12:00,60.9,46.5,29.94,SE,133,4.0,4.0,59,0.00,,,0.00,WeatherDisplay:10.34,2013-08-06 10:12:00,
2013-08-06 04:17:00,60.5,47.0,29.94,SSE,150,12.0,12.0,61,0.00,,,0.00,WeatherDisplay:10.34,2013-08-06 10:17:00,
2013-08-06 04:22:00,60.5,46.1,29.96,SW,218,2.0,2.0,59,0.00,,,0.00,WeatherDisplay:10.34,2013-08-06 10:22:00,
2013-08-06 04:27:00,60.7,46.3,29.96,SSW,213,9.0,9.0,59,0.00,,,0.00,WeatherDisplay:10.34,2013-08-06 10:27:00,
2013-08-06 04:32:00,61.0,46.6,29.96,ESE,113,3.0,3.0,59,0.00,,,0.00,WeatherDisplay:10.34,2013-08-06 10:32:00,
2013-08-06 04:37:00,61.1,46.7,29.96,SE,137,4.0,4.0,59,0.00,,,0.00,WeatherDisplay:10.34,2013-08-06 10:37:00,
2013-08-06 04:42:00,60.5,46.5,29.96,SSE,150,5.0,5.0,60,0.00,,,0.00,WeatherDisplay:10.34,2013-08-06 10:42:00,
2013-08-06 04:47:00,60.1,46.6,29.96,SSW,199,4.0,4.0,61,0.00,,,0.00,WeatherDisplay:10.34,2013-08-06 10:47:00,
2013-08-06 04:52:00,60.0,46.9,29.96,South,190,3.0,3.0,62,0.00,,,0.00,WeatherDisplay:10.34,2013-08-06 10:52:00,
2013-08-06 04:57:00,59.8,46.7,29.96,SSW,192,4.0,4.0,62,0.00,,,0.00,WeatherDisplay:10.34,2013-08-06 10:57:00,
2013-08-06 05:02:00,59.6,47.0,29.96,SSW,192,0.0,0.0,63,0.00,,,0.00,WeatherDisplay:10.34,2013-08-06 11:02:00,
2013-08-06 05:07:00,59.6,46.6,29.96,SSW,192,5.0,5.0,62,0.00,,,0.00,WeatherDisplay:10.34,2013-08-06 11:07:00,
2013-08-06 05:12:00,59.5,46.9,29.96,SSW,192,4.0,4.0,63,0.00,,,0.00,WeatherDisplay:10.34,2013-08-06 11:12:00,
2013-08-06 05:17:00,59.4,46.8,29.96,SSW,193,0.0,0.0,63,0.00,,,0.00,WeatherDisplay:10.34,2013-08-06 11:17:00,
2013-08-06 05:22:00,59.0,46.4,29.96,SSW,193,4.0,4.0,63,0.00,,,0.00,WeatherDisplay:10.34,2013-08-06 11:22:00,
2013-08-06 05:27:00,58.9,46.7,29.96,South,178,4.0,5.0,64,0.00,,,0.00,WeatherDisplay:10.34,2013-08-06 11:27:00,
2013-08-06 05:32:00,58.5,46.8,29.96,South,190,3.0,3.0,65,0.00,,,0.00,WeatherDisplay:10.34,2013-08-06 11:32:00,
2013-08-06 05:37:00,58.4,47.1,29.96,South,190,3.0,3.0,66,0.00,,,0.00,WeatherDisplay:10.34,2013-08-06 11:37:00,
2013-08-06 05:42:00,58.1,46.8,29.96,South,190,0.0,1.0,66,0.00,,,0.00,WeatherDisplay:10.34,2013-08-06 11:42:00,
2013-08-06 05:47:00,57.7,46.8,29.96,South,190,1.0,2.0,67,0.00,,,0.00,WeatherDisplay:10.34,2013-08-06 11:47:00,
2013-08-06 05:52:00,57.2,46.7,29.97,South,190,1.0,2.0,68,0.00,,,0.00,WeatherDisplay:10.34,2013-08-06 11:52:00,
2013-08-06 05:57:00,56.8,46.7,29.97,South,190,0.0,1.0,69,0.00,,,0.00,WeatherDisplay:10.34,2013-08-06 11:57:00,
2013-08-06 06:02:00,56.6,46.5,29.97,South,190,0.0,1.0,69,0.00,OVC,OVC,0.00,WeatherDisplay:10.34,2013-08-06 12:02:00,
2013-08-06 06:07:00,56.5,46.8,29.97,South,190,3.0,3.0,70,0.00,OVC,OVC,0.00,WeatherDisplay:10.34,2013-08-06 12:07:00,
2013-08-06 06:12:00,56.3,47.0,29.97,SSW,194,4.0,4.0,71,0.00,OVC,OVC,0.00,WeatherDisplay:10.34,2013-08-06 12:12:00,
2013-08-06 06:17:00,56.1,46.8,29.97,SSW,194,1.0,1.0,71,0.00,SCT,SCT,0.00,WeatherDisplay:10.34,2013-08-06 12:17:00,
2013-08-06 06:22:00,56.0,46.7,29.97,SSW,195,4.0,4.0,71,0.00,OVC,OVC,0.00,WeatherDisplay:10.34,2013-08-06 12:22:00,
2013-08-06 06:27:00,55.9,47.0,29.98,SSW,200,3.0,5.0,72,0.00,OVC,OVC,0.00,WeatherDisplay:10.34,2013-08-06 12:27:00,
2013-08-06 06:32:00,55.7,46.8,29.98,SSW,200,0.0,1.0,72,0.00,OVC,OVC,0.00,WeatherDisplay:10.34,2013-08-06 12:32:00,
2013-08-06 06:37:00,55.6,47.1,29.98,SSW,200,0.0,0.0,73,0.00,OVC,OVC,0.00,WeatherDisplay:10.34,2013-08-06 12:37:00,
2013-08-06 06:42:00,55.4,46.9,29.98,SSW,200,0.0,0.0,73,0.00,OVC,OVC,0.00,WeatherDisplay:10.34,2013-08-06 12:42:00,
2013-08-06 06:47:00,55.3,46.8,29.98,SSW,199,0.0,0.0,73,0.00,OVC,OVC,0.00,WeatherDisplay:10.34,2013-08-06 12:47:00,
2013-08-06 06:52:00,55.2,47.1,29.98,SSW,199,2.0,2.0,74,0.00,OVC,OVC,0.00,WeatherDisplay:10.34,2013-08-06 12:52:00,
2013-08-06 06:57:00,55.1,47.0,29.98,SSW,200,3.0,3.0,74,0.00,OVC,OVC,0.00,WeatherDisplay:10.34,2013-08-06 12:57:00,
2013-08-06 07:02:00,55.0,47.2,29.98,SSW,199,1.0,2.0,75,0.00,OVC,OVC,0.00,WeatherDisplay:10.34,2013-08-06 13:02:00,
2013-08-06 07:07:00,55.0,47.2,29.98,SSW,200,2.0,2.0,75,0.00,OVC,OVC,0.00,WeatherDisplay:10.34,2013-08-06 13:07:00,
2013-08-06 07:12:00,55.0,47.6,29.99,SSW,200,3.0,3.0,76,0.00,BKN,BKN,0.00,WeatherDisplay:10.34,2013-08-06 13:12:00,
2013-08-06 07:17:00,55.0,47.9,29.99,SSW,200,4.0,5.0,77,0.00,OVC,OVC,0.00,WeatherDisplay:10.34,2013-08-06 13:17:00,
2013-08-06 07:22:00,55.2,48.1,29.99,SSW,198,7.0,8.0,77,0.00,OVC,OVC,0.00,WeatherDisplay:10.34,2013-08-06 13:22:00,
2013-08-06 07:27:00,55.6,48.5,29.99,SSW,198,5.0,5.0,77,0.00,BKN,BKN,0.00,WeatherDisplay:10.34,2013-08-06 13:27:00,
2013-08-06 07:32:00,55.9,48.8,29.99,SSW,205,8.0,8.0,77,0.00,BKN,BKN,0.00,WeatherDisplay:10.34,2013-08-06 13:32:00,
2013-08-06 07:37:00,56.3,48.8,29.99,SW,235,4.0,5.0,76,0.00,BKN,BKN,0.00,WeatherDisplay:10.34,2013-08-06 13:37:00,
2013-08-06 07:42:00,56.7,48.9,29.99,SW,220,7.0,7.0,75,0.00,BKN,BKN,0.00,WeatherDisplay:10.34,2013-08-06 13:42:00,
2013-08-06 07:47:00,57.2,49.7,29.99,SW,219,6.0,6.0,76,0.00,BKN,BKN,0.00,WeatherDisplay:10.34,2013-08-06 13:47:00,
2013-08-06 07:52:00,57.6,50.1,29.99,SW,229,6.0,6.0,76,0.00,BKN,BKN,0.00,WeatherDisplay:10.34,2013-08-06 13:52:00,
2013-08-06 07:57:00,58.0,50.5,29.99,SW,225,4.0,4.0,76,0.00,BKN,BKN,0.00,WeatherDisplay:10.34,2013-08-06 13:57:00,
2013-08-06 08:02:00,58.6,51.1,29.99,SW,226,6.0,7.0,76,0.00,BKN,BKN,0.00,WeatherDisplay:10.34,2013-08-06 14:02:00,
2013-08-06 08:07:00,59.0,51.1,29.99,SW,215,5.0,5.0,75,0.00,SCT,SCT,0.00,WeatherDisplay:10.34,2013-08-06 14:07:00,
2013-08-06 08:12:00,59.7,51.4,29.99,SW,216,3.0,3.0,74,0.00,BKN,BKN,0.00,WeatherDisplay:10.34,2013-08-06 14:12:00,
2013-08-06 08:17:00,60.2,51.9,29.99,SW,216,4.0,4.0,74,0.00,BKN,BKN,0.00,WeatherDisplay:10.34,2013-08-06 14:17:00,
2013-08-06 08:22:00,60.6,51.9,29.99,SW,216,4.0,4.0,73,0.00,SCT,SCT,0.00,WeatherDisplay:10.34,2013-08-06 14:22:00,
2013-08-06 08:27:00,61.1,52.0,29.99,SW,216,3.0,3.0,72,0.00,SCT,SCT,0.00,WeatherDisplay:10.34,2013-08-06 14:27:00,
2013-08-06 08:32:00,61.9,52.4,30.00,SW,215,2.0,2.0,71,0.00,SCT,SCT,0.00,WeatherDisplay:10.34,2013-08-06 14:32:00,
2013-08-06 08:37:00,63.0,52.7,30.00,SW,215,1.0,2.0,69,0.00,SCT,SCT,0.00,WeatherDisplay:10.34,2013-08-06 14:37:00,
2013-08-06 08:42:00,63.8,51.4,30.00,NW,310,5.0,5.0,64,0.00,CLR,CLR,0.00,WeatherDisplay:10.34,2013-08-06 14:42:00,
2013-08-06 08:47:00,65.3,50.1,30.00,WNW,295,7.0,8.0,58,0.00,CLR,CLR,0.00,WeatherDisplay:10.34,2013-08-06 14:47:00,
2013-08-06 08:52:00,66.6,49.4,30.00,WNW,284,8.0,9.0,54,0.00,CLR,CLR,0.00,WeatherDisplay:10.34,2013-08-06 14:52:00,
2013-08-06 08:57:00,68.0,50.2,30.00,NNW,341,9.0,10.0,53,0.00,CLR,CLR,0.00,WeatherDisplay:10.34,2013-08-06 14:57:00,
2013-08-06 09:02:00,68.8,48.3,30.00,NW,325,7.0,13.0,48,0.00,FEW,FEW,0.00,WeatherDisplay:10.34,2013-08-06 15:02:00,
2013-08-06 09:07:00,69.3,49.9,30.00,NW,309,4.0,5.0,50,0.00,BKN,BKN,0.00,WeatherDisplay:10.34,2013-08-06 15:07:00,
2013-08-06 09:12:00,69.5,49.5,30.00,West,269,5.0,7.0,49,0.00,SCT,SCT,0.00,WeatherDisplay:10.34,2013-08-06 15:12:00,
2013-08-06 09:17:00,69.3,49.3,30.00,WNW,282,6.0,9.0,49,0.00,BKN,BKN,0.00,WeatherDisplay:10.34,2013-08-06 15:17:00,
2013-08-06 09:22:00,69.2,49.2,30.00,WNW,298,7.0,9.0,49,0.00,BKN,BKN,0.00,WeatherDisplay:10.34,2013-08-06 15:22:00,
2013-08-06 09:27:00,69.4,49.9,30.00,WNW,290,7.0,10.0,50,0.00,FEW,FEW,0.00,WeatherDisplay:10.34,2013-08-06 15:27:00,
2013-08-06 09:32:00,70.0,48.8,30.00,WNW,300,6.0,10.0,47,0.00,CLR,CLR,0.00,WeatherDisplay:10.34,2013-08-06 15:32:00,
2013-08-06 09:37:00,70.7,50.6,30.00,WNW,295,3.0,7.0,49,0.00,CLR,CLR,0.00,WeatherDisplay:10.34,2013-08-06 15:37:00,
2013-08-06 09:42:00,71.2,49.4,30.00,WNW,291,4.0,5.0,46,0.00,CLR,CLR,0.00,WeatherDisplay:10.34,2013-08-06 15:42:00,
2013-08-06 09:47:00,71.5,49.0,30.00,WNW,302,10.0,10.0,45,0.00,CLR,CLR,0.00,WeatherDisplay:10.34,2013-08-06 15:47:00,
2013-08-06 09:52:00,71.9,51.1,30.00,WNW,293,8.0,9.0,48,0.00,CLR,CLR,0.00,WeatherDisplay:10.34,2013-08-06 15:52:00,
2013-08-06 09:57:00,72.4,50.4,30.00,WNW,289,7.0,7.0,46,0.00,CLR,CLR,0.00,WeatherDisplay:10.34,2013-08-06 15:57:00,
2013-08-06 10:02:00,72.7,50.7,30.00,WNW,289,5.0,7.0,46,0.00,CLR,CLR,0.00,WeatherDisplay:10.34,2013-08-06 16:02:00,
2013-08-06 10:07:00,73.1,50.5,30.00,West,267,9.0,14.0,45,0.00,CLR,CLR,0.00,WeatherDisplay:10.34,2013-08-06 16:07:00,
2013-08-06 10:12:00,73.3,49.4,29.99,West,278,8.0,9.0,43,0.00,CLR,CLR,0.00,WeatherDisplay:10.34,2013-08-06 16:12:00,
2013-08-06 10:17:00,73.7,49.8,29.99,WNW,296,7.0,10.0,43,0.00,CLR,CLR,0.00,WeatherDisplay:10.34,2013-08-06 16:17:00,
2013-08-06 10:22:00,74.0,50.7,29.99,West,273,4.0,4.0,44,0.00,CLR,CLR,0.00,WeatherDisplay:10.34,2013-08-06 16:22:00,
2013-08-06 10:27:00,74.2,50.3,29.99,WNW,302,6.0,9.0,43,0.00,CLR,CLR,0.00,WeatherDisplay:10.34,2013-08-06 16:27:00,
2013-08-06 10:32:00,74.6,50.6,29.99,West,277,1.0,1.0,43,0.00,CLR,CLR,0.00,WeatherDisplay:10.34,2013-08-06 16:32:00,
2013-08-06 10:37:00,75.1,49.1,29.99,NW,313,5.0,7.0,40,0.00,CLR,CLR,0.00,WeatherDisplay:10.34,2013-08-06 16:37:00,
2013-08-06 10:42:00,75.6,50.2,29.99,WSW,252,1.0,2.0,41,0.00,FEW,FEW,0.00,WeatherDisplay:10.34,2013-08-06 16:42:00,
2013-08-06 10:47:00,76.2,49.4,29.99,WNW,297,1.0,5.0,39,0.00,FEW,FEW,0.00,WeatherDisplay:10.34,2013-08-06 16:47:00,
2013-08-06 10:52:00,76.6,49.1,29.99,West,281,1.0,5.0,38,0.00,FEW,FEW,0.00,WeatherDisplay:10.34,2013-08-06 16:52:00,
2013-08-06 10:58:00,76.9,50.1,29.99,NNW,338,9.0,9.0,39,0.00,FEW,FEW,0.00,WeatherDisplay:10.34,2013-08-06 16:58:00,
2013-08-06 11:03:00,77.1,50.2,29.99,NNW,330,4.0,5.0,39,0.00,FEW,FEW,0.00,WeatherDisplay:10.34,2013-08-06 17:03:00,
2013-08-06 11:08:00,77.2,49.6,29.99,WNW,292,6.0,10.0,38,0.00,FEW,FEW,0.00,WeatherDisplay:10.34,2013-08-06 17:08:00,
2013-08-06 11:13:00,77.5,49.9,29.99,West,281,6.0,9.0,38,0.00,FEW,FEW,0.00,WeatherDisplay:10.34,2013-08-06 17:13:00,
2013-08-06 11:18:00,77.7,48.6,29.99,NW,319,6.0,6.0,36,0.00,FEW,FEW,0.00,WeatherDisplay:10.34,2013-08-06 17:18:00,
2013-08-06 11:23:00,77.8,48.7,29.99,West,281,11.0,12.0,36,0.00,FEW,FEW,0.00,WeatherDisplay:10.34,2013-08-06 17:23:00,
2013-08-06 11:28:00,78.0,48.9,29.99,NW,313,9.0,12.0,36,0.00,FEW,FEW,0.00,WeatherDisplay:10.34,2013-08-06 17:28:00,
2013-08-06 11:32:00,77.9,49.5,29.98,WNW,297,9.0,12.0,37,0.00,FEW,FEW,0.00,WeatherDisplay:10.34,2013-08-06 17:32:00,
2013-08-06 11:37:00,77.8,47.9,29.99,NNW,336,9.0,10.0,35,0.00,FEW,FEW,0.00,WeatherDisplay:10.34,2013-08-06 17:37:00,
2013-08-06 11:42:00,78.2,48.3,29.99,North,349,4.0,7.0,35,0.00,FEW,FEW,0.00,WeatherDisplay:10.34,2013-08-06 17:42:00,
2013-08-06 11:47:00,78.3,49.1,29.99,NW,325,13.0,14.0,36,0.00,FEW,FEW,0.00,WeatherDisplay:10.34,2013-08-06 17:47:00,
2013-08-06 11:52:00,77.8,47.9,29.99,ENE,72,8.0,8.0,35,0.00,FEW,FEW,0.00,WeatherDisplay:10.34,2013-08-06 17:52:00,
2013-08-06 11:57:00,78.4,47.7,29.99,NE,53,4.0,5.0,34,0.00,FEW,FEW,0.00,WeatherDisplay:10.34,2013-08-06 17:57:00,
2013-08-06 12:02:00,79.0,49.0,29.99,North,360,13.0,13.0,35,0.00,FEW,FEW,0.00,WeatherDisplay:10.34,2013-08-06 18:02:00,
2013-08-06 12:07:00,78.8,48.1,29.99,NNE,17,14.0,15.0,34,0.00,FEW,FEW,0.00,WeatherDisplay:10.34,2013-08-06 18:07:00,
2013-08-06 12:12:00,78.7,48.7,29.98,North,355,7.0,8.0,35,0.00,FEW,FEW,0.00,WeatherDisplay:10.34,2013-08-06 18:12:00,
2013-08-06 12:17:00,79.0,49.8,29.98,WNW,296,5.0,9.0,36,0.00,FEW,FEW,0.00,WeatherDisplay:10.34,2013-08-06 18:17:00,
2013-08-06 12:22:00,79.4,47.8,29.98,NNE,25,10.0,10.0,33,0.00,FEW,FEW,0.00,WeatherDisplay:10.34,2013-08-06 18:22:00,
2013-08-06 12:27:00,79.5,49.4,29.98,NNW,338,10.0,10.0,35,0.00,FEW,FEW,0.00,WeatherDisplay:10.34,2013-08-06 18:27:00,
2013-08-06 12:32:00,79.4,48.6,29.98,NNW,342,6.0,8.0,34,0.00,FEW,FEW,0.00,WeatherDisplay:10.34,2013-08-06 18:32:00,
2013-08-06 12:37:00,79.6,49.5,29.98,NW,310,6.0,12.0,35,0.00,FEW,FEW,0.00,WeatherDisplay:10.34,2013-08-06 18:37:00,
2013-08-06 12:42:00,80.0,49.1,29.98,NW,311,8.0,16.0,34,0.00,FEW,FEW,0.00,WeatherDisplay:10.34,2013-08-06 18:42:00,
2013-08-06 12:47:00,80.1,49.2,29.98,NW,313,8.0,10.0,34,0.00,FEW,FEW,0.00,WeatherDisplay:10.34,2013-08-06 18:47:00,
2013-08-06 12:52:00,80.3,50.1,29.98,NW,321,10.0,10.0,35,0.00,FEW,FEW,0.00,WeatherDisplay:10.34,2013-08-06 18:52:00,
2013-08-06 12:57:00,80.0,49.1,29.98,NNW,346,11.0,13.0,34,0.00,FEW,FEW,0.00,WeatherDisplay:10.34,2013-08-06 18:57:00,
2013-08-06 13:02:00,80.3,50.1,29.96,West,277,3.0,5.0,35,0.00,FEW,FEW,0.00,WeatherDisplay:10.34,2013-08-06 19:02:00,
2013-08-06 13:07:00,80.4,50.2,29.96,NNW,336,5.0,9.0,35,0.00,FEW,FEW,0.00,WeatherDisplay:10.34,2013-08-06 19:07:00,
2013-08-06 13:12:00,80.9,49.9,29.98,North,360,7.0,9.0,34,0.00,FEW,FEW,0.00,WeatherDisplay:10.34,2013-08-06 19:12:00,
2013-08-06 13:17:00,80.5,47.1,29.98,NNW,346,18.0,18.0,31,0.00,FEW,FEW,0.00,WeatherDisplay:10.34,2013-08-06 19:17:00,
2013-08-06 13:22:00,80.2,50.1,29.97,NNW,346,12.0,12.0,35,0.00,FEW,FEW,0.00,WeatherDisplay:10.34,2013-08-06 19:22:00,
2013-08-06 13:27:00,79.0,49.8,29.97,North,11,10.0,12.0,36,0.00,FEW,FEW,0.00,WeatherDisplay:10.34,2013-08-06 19:27:00,
2013-08-06 13:32:00,78.9,48.9,29.97,NNW,334,12.0,16.0,35,0.00,FEW,FEW,0.00,WeatherDisplay:10.34,2013-08-06 19:32:00,
2013-08-06 13:37:00,79.1,49.1,29.97,NNW,336,8.0,9.0,35,0.00,FEW,FEW,0.00,WeatherDisplay:10.34,2013-08-06 19:37:00,
2013-08-06 13:42:00,79.8,48.1,29.97,NW,319,2.0,5.0,33,0.00,FEW,FEW,0.00,WeatherDisplay:10.34,2013-08-06 19:42:00,
2013-08-06 13:47:00,80.1,50.0,29.97,NNW,335,8.0,12.0,35,0.00,FEW,FEW,0.00,WeatherDisplay:10.34,2013-08-06 19:47:00,
2013-08-06 13:52:00,80.3,47.7,29.97,NNW,344,5.0,7.0,32,0.00,FEW,FEW,0.00,WeatherDisplay:10.34,2013-08-06 19:52:00,
2013-08-06 13:57:00,80.3,47.7,29.97,NNW,344,10.0,12.0,32,0.00,FEW,FEW,0.00,WeatherDisplay:10.34,2013-08-06 19:57:00,
2013-08-06 14:02:00,80.5,47.9,29.97,NE,49,6.0,9.0,32,0.00,FEW,FEW,0.00,WeatherDisplay:10.34,2013-08-06 20:02:00,
2013-08-06 14:07:00,81.3,48.6,29.97,North,355,11.0,13.0,32,0.00,FEW,FEW,0.00,WeatherDisplay:10.34,2013-08-06 20:07:00,
2013-08-06 14:12:00,81.2,48.5,29.97,North,355,13.0,13.0,32,0.00,FEW,FEW,0.00,WeatherDisplay:10.34,2013-08-06 20:12:00,
2013-08-06 14:17:00,81.1,48.4,29.97,West,272,2.0,5.0,32,0.00,FEW,FEW,0.00,WeatherDisplay:10.34,2013-08-06 20:17:00,
2013-08-06 14:22:00,81.6,49.7,29.96,North,9,11.0,13.0,33,0.00,FEW,FEW,0.00,WeatherDisplay:10.34,2013-08-06 20:22:00,
2013-08-06 14:27:00,80.9,49.1,29.96,NNE,21,15.0,15.0,33,0.00,FEW,FEW,0.00,WeatherDisplay:10.34,2013-08-06 20:27:00,
2013-08-06 14:32:00,80.8,48.2,29.96,NNW,345,11.0,13.0,32,0.00,FEW,FEW,0.00,WeatherDisplay:10.34,2013-08-06 20:32:00,
2013-08-06 14:33:00,80.8,48.2,29.96,NW,306,13.0,21.0,32,0.00,FEW,FEW,0.00,WeatherDisplay:10.34,2013-08-06 20:33:00,
2013-08-06 14:38:00,80.9,49.1,29.97,NW,318,8.0,9.0,33,0.00,FEW,FEW,0.00,WeatherDisplay:10.34,2013-08-06 20:38:00,
2013-08-06 14:43:00,81.5,50.4,29.96,WNW,295,5.0,5.0,34,0.00,FEW,FEW,0.00,WeatherDisplay:10.34,2013-08-06 20:43:00,
2013-08-06 14:48:00,81.6,48.9,29.96,North,355,12.0,12.0,32,0.00,FEW,FEW,0.00,WeatherDisplay:10.34,2013-08-06 20:48:00,
2013-08-06 14:53:00,81.3,48.6,29.96,WNW,295,13.0,13.0,32,0.00,CLR,CLR,0.00,WeatherDisplay:10.34,2013-08-06 20:53:00,
2013-08-06 14:58:00,81.4,48.7,29.96,NW,319,5.0,12.0,32,0.00,FEW,FEW,0.00,WeatherDisplay:10.34,2013-08-06 20:58:00,
2013-08-06 15:03:00,81.8,49.1,29.96,NNW,336,10.0,10.0,32,0.00,FEW,FEW,0.00,WeatherDisplay:10.34,2013-08-06 21:03:00,
2013-08-06 15:08:00,81.8,49.1,29.96,West,274,12.0,12.0,32,0.00,CLR,CLR,0.00,WeatherDisplay:10.34,2013-08-06 21:08:00,
2013-08-06 15:13:00,81.9,49.1,29.96,NNW,331,8.0,10.0,32,0.00,FEW,FEW,0.00,WeatherDisplay:10.34,2013-08-06 21:13:00,
2013-08-06 15:18:00,81.9,47.4,29.96,NW,314,4.0,4.0,30,0.00,FEW,FEW,0.00,WeatherDisplay:10.34,2013-08-06 21:18:00,
2013-08-06 15:23:00,82.5,48.8,29.95,WNW,291,8.0,10.0,31,0.00,FEW,FEW,0.00,WeatherDisplay:10.34,2013-08-06 21:23:00,
2013-08-06 15:28:00,83.0,50.1,29.95,WNW,296,6.0,8.0,32,0.00,FEW,FEW,0.00,WeatherDisplay:10.34,2013-08-06 21:28:00,
2013-08-06 15:33:00,82.4,46.9,29.95,NNW,340,11.0,11.0,29,0.00,SCT,SCT,0.00,WeatherDisplay:10.34,2013-08-06 21:33:00,
2013-08-06 15:38:00,82.3,48.6,29.95,NNW,341,11.0,13.0,31,0.00,CLR,CLR,0.00,WeatherDisplay:10.34,2013-08-06 21:38:00,
2013-08-06 15:43:00,82.4,46.9,29.95,WNW,303,5.0,5.0,29,0.00,CLR,CLR,0.00,WeatherDisplay:10.34,2013-08-06 21:43:00,
2013-08-06 15:48:00,82.7,46.3,29.95,NNW,327,15.0,15.0,28,0.00,CLR,CLR,0.00,WeatherDisplay:10.34,2013-08-06 21:48:00,
2013-08-06 15:53:00,82.5,47.0,29.95,NNE,13,11.0,11.0,29,0.00,CLR,CLR,0.00,WeatherDisplay:10.34,2013-08-06 21:53:00,
2013-08-06 15:58:00,82.1,47.6,29.95,NW,319,12.0,12.0,30,0.00,CLR,CLR,0.00,WeatherDisplay:10.34,2013-08-06 21:58:00,
2013-08-06 16:03:00,82.5,47.9,29.95,WSW,257,8.0,15.0,30,0.00,CLR,CLR,0.00,WeatherDisplay:10.34,2013-08-06 22:03:00,
2013-08-06 16:08:00,83.1,46.6,29.95,NNW,339,10.0,14.0,28,0.00,CLR,CLR,0.00,WeatherDisplay:10.34,2013-08-06 22:08:00,
2013-08-06 16:13:00,83.1,45.7,29.95,NNW,348,9.0,10.0,27,0.00,CLR,CLR,0.00,WeatherDisplay:10.34,2013-08-06 22:13:00,
2013-08-06 16:18:00,82.9,47.4,29.95,NW,311,10.0,12.0,29,0.00,CLR,CLR,0.00,WeatherDisplay:10.34,2013-08-06 22:18:00,
2013-08-06 16:23:00,82.5,46.1,29.95,NW,304,11.0,13.0,28,0.00,CLR,CLR,0.00,WeatherDisplay:10.34,2013-08-06 22:23:00,
2013-08-06 16:28:00,82.6,45.2,29.95,North,355,14.0,14.0,27,0.00,CLR,CLR,0.00,WeatherDisplay:10.34,2013-08-06 22:28:00,
2013-08-06 16:33:00,82.7,46.3,29.95,NW,320,11.0,13.0,28,0.00,CLR,CLR,0.00,WeatherDisplay:10.34,2013-08-06 22:33:00,
2013-08-06 16:38:00,82.7,45.3,29.95,NW,317,17.0,17.0,27,0.00,CLR,CLR,0.00,WeatherDisplay:10.34,2013-08-06 22:38:00,
2013-08-06 16:43:00,82.5,47.0,29.95,NE,45,1.0,1.0,29,0.00,CLR,CLR,0.00,WeatherDisplay:10.34,2013-08-06 22:43:00,
2013-08-06 16:48:00,82.8,46.4,29.95,North,355,14.0,14.0,28,0.00,CLR,CLR,0.00,WeatherDisplay:10.34,2013-08-06 22:48:00,
2013-08-06 16:53:00,82.4,46.0,29.95,North,349,12.0,12.0,28,0.00,CLR,CLR,0.00,WeatherDisplay:10.34,2013-08-06 22:53:00,
2013-08-06 16:58:00,82.2,44.9,29.95,NNW,333,6.0,6.0,27,0.00,CLR,CLR,0.00,WeatherDisplay:10.34,2013-08-06 22:58:00,
2013-08-06 17:03:00,82.4,46.9,29.95,NNW,348,11.0,11.0,29,0.00,CLR,CLR,0.00,WeatherDisplay:10.34,2013-08-06 23:03:00,
2013-08-06 17:08:00,82.2,45.8,29.95,NNW,342,18.0,20.0,28,0.00,CLR,CLR,0.00,WeatherDisplay:10.34,2013-08-06 23:08:00,
2013-08-06 17:14:00,81.4,44.2,29.95,NNW,338,21.0,22.0,27,0.00,CLR,CLR,0.00,WeatherDisplay:10.34,2013-08-06 23:14:00,
2013-08-06 17:19:00,81.6,45.3,29.95,NNW,332,11.0,11.0,28,0.00,CLR,CLR,0.00,WeatherDisplay:10.34,2013-08-06 23:19:00,
2013-08-06 17:24:00,81.7,45.4,29.95,North,350,13.0,14.0,28,0.00,CLR,CLR,0.00,WeatherDisplay:10.34,2013-08-06 23:24:00,
2013-08-06 17:29:00,81.6,45.3,29.95,NNW,341,9.0,9.0,28,0.00,CLR,CLR,0.00,WeatherDisplay:10.34,2013-08-06 23:29:00,
2013-08-06 17:34:00,81.7,44.5,29.95,WNW,303,17.0,17.0,27,0.00,CLR,CLR,0.00,WeatherDisplay:10.34,2013-08-06 23:34:00,
2013-08-06 17:39:00,81.7,44.5,29.95,North,360,7.0,9.0,27,0.00,CLR,CLR,0.00,WeatherDisplay:10.34,2013-08-06 23:39:00,
2013-08-06 17:44:00,81.7,43.5,29.95,NNW,340,14.0,14.0,26,0.00,CLR,CLR,0.00,WeatherDisplay:10.34,2013-08-06 23:44:00,
2013-08-06 17:49:00,81.6,44.4,29.95,NW,312,10.0,15.0,27,0.00,CLR,CLR,0.00,WeatherDisplay:10.34,2013-08-06 23:49:00,
2013-08-06 17:54:00,81.9,44.6,29.94,NW,309,8.0,10.0,27,0.00,CLR,CLR,0.00,WeatherDisplay:10.34,2013-08-06 23:54:00,
2013-08-06 17:59:00,81.9,43.6,29.94,NNW,344,9.0,14.0,26,0.00,CLR,CLR,0.00,WeatherDisplay:10.34,2013-08-06 23:59:00,
2013-08-06 18:04:00,81.8,43.6,29.95,NW,326,8.0,8.0,26,0.00,CLR,CLR,0.00,WeatherDisplay:10.34,2013-08-07 00:04:00,
2013-08-06 18:09:00,81.6,42.4,29.95,NNW,346,16.0,16.0,25,0.00,CLR,CLR,0.00,WeatherDisplay:10.34,2013-08-07 00:09:00,
2013-08-06 18:14:00,81.2,42.0,29.94,North,355,10.0,12.0,25,0.00,CLR,CLR,0.00,WeatherDisplay:10.34,2013-08-07 00:14:00,
2013-08-06 18:19:00,81.4,43.2,29.94,NW,313,9.0,9.0,26,0.00,CLR,CLR,0.00,WeatherDisplay:10.34,2013-08-07 00:19:00,
2013-08-06 18:24:00,81.5,42.3,29.94,North,355,9.0,10.0,25,0.00,CLR,CLR,0.00,WeatherDisplay:10.34,2013-08-07 00:24:00,
2013-08-06 18:29:00,81.0,42.9,29.94,NNW,346,13.0,15.0,26,0.00,CLR,CLR,0.00,WeatherDisplay:10.34,2013-08-07 00:29:00,
2013-08-06 18:34:00,80.6,42.5,29.94,North,355,13.0,14.0,26,0.00,CLR,CLR,0.00,WeatherDisplay:10.34,2013-08-07 00:34:00,
2013-08-06 18:39:00,80.0,43.0,29.95,North,355,16.0,20.0,27,0.00,CLR,CLR,0.00,WeatherDisplay:10.34,2013-08-07 00:39:00,
2013-08-06 18:44:00,79.6,42.7,29.95,NNW,348,12.0,14.0,27,0.00,CLR,CLR,0.00,WeatherDisplay:10.34,2013-08-07 00:44:00,
2013-08-06 18:49:00,79.6,43.6,29.95,North,355,11.0,20.0,28,0.00,CLR,CLR,0.00,WeatherDisplay:10.34,2013-08-07 00:49:00,
2013-08-06 18:54:00,79.6,42.7,29.95,WNW,300,9.0,12.0,27,0.00,CLR,CLR,0.00,WeatherDisplay:10.34,2013-08-07 00:54:00,
2013-08-06 18:59:00,79.6,43.6,29.95,NNW,340,10.0,12.0,28,0.00,CLR,CLR,0.00,WeatherDisplay:10.34,2013-08-07 00:59:00,
2013-08-06 19:04:00,79.2,44.2,29.95,NNW,343,14.0,14.0,29,0.00,CLR,CLR,0.00,WeatherDisplay:10.34,2013-08-07 01:04:00,
2013-08-06 19:09:00,78.7,43.8,29.95,NNW,347,13.0,13.0,29,0.00,CLR,CLR,0.00,WeatherDisplay:10.34,2013-08-07 01:09:00,
2013-08-06 19:14:00,78.3,44.3,29.95,NNW,348,15.0,15.0,30,0.00,CLR,CLR,0.00,WeatherDisplay:10.34,2013-08-07 01:14:00,
2013-08-06 19:19:00,77.9,44.0,29.95,NNW,336,15.0,15.0,30,0.00,CLR,CLR,0.00,WeatherDisplay:10.34,2013-08-07 01:19:00,
2013-08-06 19:24:00,77.4,45.2,29.95,North,349,13.0,14.0,32,0.00,CLR,CLR,0.00,WeatherDisplay:10.34,2013-08-07 01:24:00,
2013-08-06 19:29:00,77.0,44.0,29.95,NW,322,9.0,10.0,31,0.00,CLR,CLR,0.00,WeatherDisplay:10.34,2013-08-07 01:29:00,
2013-08-06 19:34:00,77.0,44.9,29.95,NNW,331,7.0,8.0,32,0.00,CLR,CLR,0.00,WeatherDisplay:10.34,2013-08-07 01:34:00,
2013-08-06 19:39:00,76.7,46.2,29.95,NNW,333,8.0,9.0,34,0.00,CLR,CLR,0.00,WeatherDisplay:10.34,2013-08-07 01:39:00,
2013-08-06 19:44:00,76.1,45.7,29.96,NW,323,6.0,9.0,34,0.00,CLR,CLR,0.00,WeatherDisplay:10.34,2013-08-07 01:44:00,
2013-08-06 19:49:00,75.5,45.2,29.96,NNW,334,8.0,10.0,34,0.00,CLR,CLR,0.00,WeatherDisplay:10.34,2013-08-07 01:49:00,
2013-08-06 19:54:00,75.1,44.8,29.96,NNW,338,9.0,10.0,34,0.00,CLR,CLR,0.00,WeatherDisplay:10.34,2013-08-07 01:54:00,
2013-08-06 19:59:00,74.8,44.5,29.96,NNW,344,11.0,11.0,34,0.00,CLR,CLR,0.00,WeatherDisplay:10.34,2013-08-07 01:59:00,
2013-08-06 20:04:00,74.3,45.6,29.96,NNW,330,9.0,9.0,36,0.00,FEW,FEW,0.00,WeatherDisplay:10.34,2013-08-07 02:04:00,
2013-08-06 20:09:00,73.7,45.8,29.96,NNW,346,9.0,9.0,37,0.00,BKN,BKN,0.00,WeatherDisplay:10.34,2013-08-07 02:09:00,
2013-08-06 20:14:00,73.2,46.1,29.96,NNW,329,5.0,5.0,38,0.00,BKN,BKN,0.00,WeatherDisplay:10.34,2013-08-07 02:14:00,
2013-08-06 20:19:00,72.8,45.0,29.96,NNW,330,4.0,5.0,37,0.00,SCT,SCT,0.00,WeatherDisplay:10.34,2013-08-07 02:19:00,
2013-08-06 20:24:00,72.5,44.7,29.97,NNW,338,4.0,5.0,37,0.00,FEW,FEW,0.00,WeatherDisplay:10.34,2013-08-07 02:24:00,
2013-08-06 20:29:00,72.2,45.2,29.97,NW,324,5.0,5.0,38,0.00,OVC,OVC,0.00,WeatherDisplay:10.34,2013-08-07 02:29:00,
2013-08-06 20:34:00,71.8,44.8,29.97,WNW,303,0.0,0.0,38,0.00,OVC,OVC,0.00,WeatherDisplay:10.34,2013-08-07 02:34:00,
2013-08-06 20:39:00,71.5,44.5,29.97,NW,304,2.0,5.0,38,0.00,OVC,OVC,0.00,WeatherDisplay:10.34,2013-08-07 02:39:00,
2013-08-06 20:44:00,71.3,44.4,29.98,NW,318,0.0,1.0,38,0.00,OVC,OVC,0.00,WeatherDisplay:10.34,2013-08-07 02:44:00,
2013-08-06 20:49:00,71.2,44.3,29.98,WNW,292,3.0,3.0,38,0.00,OVC,OVC,0.00,WeatherDisplay:10.34,2013-08-07 02:49:00,
2013-08-06 20:54:00,71.0,44.8,29.98,WNW,292,1.0,2.0,39,0.00,OVC,OVC,0.00,WeatherDisplay:10.34,2013-08-07 02:54:00,
2013-08-06 20:59:00,70.7,45.2,29.98,West,279,1.0,2.0,40,0.00,OVC,OVC,0.00,WeatherDisplay:10.34,2013-08-07 02:59:00,
2013-08-06 21:04:00,70.3,45.5,29.98,West,281,2.0,3.0,41,0.00,,,0.00,WeatherDisplay:10.34,2013-08-07 03:04:00,
2013-08-06 21:09:00,69.9,45.1,29.98,West,281,0.0,1.0,41,0.00,,,0.00,WeatherDisplay:10.34,2013-08-07 03:09:00,
2013-08-06 21:14:00,69.6,44.8,29.99,WNW,288,1.0,2.0,41,0.00,,,0.00,WeatherDisplay:10.34,2013-08-07 03:14:00,
2013-08-06 21:19:00,69.2,44.5,29.99,NNE,15,2.0,3.0,41,0.00,,,0.00,WeatherDisplay:10.34,2013-08-07 03:19:00,
2013-08-06 21:24:00,68.6,43.9,30.00,NW,325,3.0,3.0,41,0.00,,,0.00,WeatherDisplay:10.34,2013-08-07 03:24:00,
2013-08-06 21:29:00,68.5,43.9,30.00,NNE,19,1.0,1.0,41,0.00,,,0.00,WeatherDisplay:10.34,2013-08-07 03:29:00,
2013-08-06 21:34:00,68.4,43.8,30.00,NNE,19,0.0,0.0,41,0.00,,,0.00,WeatherDisplay:10.34,2013-08-07 03:34:00,
2013-08-06 21:35:00,68.4,43.8,30.00,NNE,19,0.0,0.0,41,0.00,,,0.00,WeatherDisplay:10.34,2013-08-07 03:35:00,
2013-08-06 21:40:00,68.4,43.8,30.00,NNE,19,0.0,0.0,41,0.00,,,0.00,WeatherDisplay:10.34,2013-08-07 03:40:00,
2013-08-06 21:45:00,68.3,43.7,30.00,NNE,19,0.0,0.0,41,0.00,,,0.00,WeatherDisplay:10.34,2013-08-07 03:45:00,
2013-08-06 21:50:00,68.3,43.7,30.00,NNE,19,0.0,0.0,41,0.00,,,0.00,WeatherDisplay:10.34,2013-08-07 03:50:00,
2013-08-06 21:55:00,68.2,43.6,30.01,NNE,19,0.0,0.0,41,0.00,,,0.00,WeatherDisplay:10.34,2013-08-07 03:55:00,
2013-08-06 22:00:00,68.0,44.7,30.01,NNE,19,0.0,1.0,43,0.00,,,0.00,WeatherDisplay:10.34,2013-08-07 04:00:00,
2013-08-06 22:01:00,68.0,44.7,30.01,NNE,19,0.0,0.0,43,0.00,,,0.00,WeatherDisplay:10.34,2013-08-07 04:01:00,
2013-08-06 22:02:00,68.0,44.7,30.01,NNE,19,0.0,0.0,43,0.00,,,0.00,WeatherDisplay:10.34,2013-08-07 04:02:00,
2013-08-06 22:03:00,67.9,44.6,30.01,NNE,19,0.0,0.0,43,0.00,,,0.00,WeatherDisplay:10.34,2013-08-07 04:03:00,
2013-08-06 22:05:00,67.9,45.2,30.01,NNE,19,0.0,1.0,44,0.00,,,0.00,WeatherDisplay:10.34,2013-08-07 04:05:00,
2013-08-06 22:10:00,67.7,44.4,30.01,NNE,19,0.0,0.0,43,0.00,,,0.00,WeatherDisplay:10.34,2013-08-07 04:10:00,
2013-08-06 22:15:00,67.5,44.2,30.01,NNE,19,1.0,1.0,43,0.00,,,0.00,WeatherDisplay:10.34,2013-08-07 04:15:00,
2013-08-06 22:20:00,67.3,45.2,30.02,NNE,19,0.0,1.0,45,0.00,,,0.00,WeatherDisplay:10.34,2013-08-07 04:20:00,
2013-08-06 22:25:00,67.0,44.4,30.02,West,270,4.0,4.0,44,0.00,,,0.00,WeatherDisplay:10.34,2013-08-07 04:25:00,
2013-08-06 22:30:00,66.7,44.1,30.02,West,270,3.0,3.0,44,0.00,,,0.00,WeatherDisplay:10.34,2013-08-07 04:30:00,
2013-08-06 22:35:00,66.5,43.9,30.02,West,263,5.0,5.0,44,0.00,,,0.00,WeatherDisplay:10.34,2013-08-07 04:35:00,
2013-08-06 22:40:00,66.3,43.7,30.02,WNW,282,5.0,7.0,44,0.00,,,0.00,WeatherDisplay:10.34,2013-08-07 04:40:00,
2013-08-06 22:45:00,66.4,43.8,30.02,West,263,5.0,5.0,44,0.00,,,0.00,WeatherDisplay:10.34,2013-08-07 04:45:00,
2013-08-06 22:50:00,66.4,44.4,30.02,West,263,3.0,3.0,45,0.00,,,0.00,WeatherDisplay:10.34,2013-08-07 04:50:00,
2013-08-06 22:55:00,66.4,44.4,30.02,West,263,2.0,2.0,45,0.00,,,0.00,WeatherDisplay:10.34,2013-08-07 04:55:00,
2013-08-06 23:00:00,66.3,44.3,30.02,West,263,0.0,1.0,45,0.00,,,0.00,WeatherDisplay:10.34,2013-08-07 05:00:00,
2013-08-06 23:05:00,66.3,44.3,30.02,West,263,2.0,2.0,45,0.00,,,0.00,WeatherDisplay:10.34,2013-08-07 05:05:00,
2013-08-06 23:10:00,66.1,46.4,30.02,West,263,0.0,1.0,49,0.00,,,0.00,WeatherDisplay:10.34,2013-08-07 05:10:00,
2013-08-06 23:15:00,65.9,46.7,30.02,West,263,0.0,1.0,50,0.00,,,0.00,WeatherDisplay:10.34,2013-08-07 05:15:00,
2013-08-06 23:20:00,65.5,45.8,30.02,West,263,0.0,0.0,49,0.00,,,0.00,WeatherDisplay:10.34,2013-08-07 05:20:00,
2013-08-06 23:25:00,65.2,47.1,30.02,West,263,0.0,1.0,52,0.00,,,0.00,WeatherDisplay:10.34,2013-08-07 05:25:00,
2013-08-06 23:30:00,64.8,46.8,30.02,West,263,0.0,1.0,52,0.00,,,0.00,WeatherDisplay:10.34,2013-08-07 05:30:00,
2013-08-06 23:35:00,64.3,47.3,30.02,West,263,0.0,0.0,54,0.00,,,0.00,WeatherDisplay:10.34,2013-08-07 05:35:00,
2013-08-06 23:40:00,63.8,46.8,30.03,West,263,0.0,0.0,54,0.00,,,0.00,WeatherDisplay:10.34,2013-08-07 05:40:00,
2013-08-06 23:45:00,63.4,46.9,30.03,West,263,0.0,1.0,55,0.00,,,0.00,WeatherDisplay:10.34,2013-08-07 05:45:00,
2013-08-06 23:50:00,62.9,46.5,30.02,West,263,2.0,2.0,55,0.00,,,0.00,WeatherDisplay:10.34,2013-08-07 05:50:00,
2013-08-06 23:55:00,62.5,46.6,30.02,West,263,0.0,1.0,56,0.00,,,0.00,WeatherDisplay:10.34,2013-08-07 05:55:00,